Find Qianfan Jigui 01-06

NORAD ID: 60384 Int'l Des: 2024-140 Owner: YUANX Country: CN Constellation: spacesail operational
LEOCIRCULARPOLAR

实时位置

正在加载3D地球...

关于 Qianfan Jigui 01-06

正在加载描述...

即将过境

Passes for default location (London). Set your location on the main map for personalized predictions.

高度历史

Loading altitude history...

两行轨道根数

1 60384U 24140F 26134.27165317 .00000054 00000-0 64229-4 0 9996
2 60384 88.9707 283.2037 0015074 113.5578 246.7159 13.51007748 88099
Epoch: May 14, 2026 • Age: 11 hours

当前状态

高度 1071.4 km
速度 7.32 km/s
星下点 51.36°N, 150.41°E
发射日期 Aug 6, 2024
运行时间 1.7 years
类型 internet

技术详情

分类 Payload
质量 267.00 kg
干质量 267.00 kg
总质量 267.00 kg
长度 0.30 m
直径 3.00 m
跨度 10.00 m
形状 Box+pan
制造商 SECM
平台类型 Qianfan
阶段状态 In Orbit
所有者/国家 YUANX/CN

Most Searched